| time (UTC) | temp F | wind direction | speed knots | gust knots | rain 1hr in | rain 24hr in | rain mn in | humidity % | barometer mb |
| 20260505152036 | 53 | 307 | 0.0 | 3.5 | 0.00 | 0.09 | 0.06 | 90 | 1009.7 |
| 20260505151611 | 52 | 319 | 0.9 | 6.1 | 0.00 | 0.09 | 0.06 | 90 | 1009.7 |
| 20260505151023 | 52 | 344 | 0.9 | 4.3 | 0.00 | 0.09 | 0.06 | 90 | 1009.7 |
| 20260505150559 | 52 | 287 | 0.0 | 4.3 | 0.00 | 0.09 | 0.06 | 90 | 1009.7 |
| 20260505150106 | 52 | 7 | 0.9 | 4.3 | 0.00 | 0.09 | 0.06 | 90 | 1009.7 |
| 20260505140600 | 52 | 328 | 0.9 | 4.3 | 0.00 | 0.09 | 0.06 | 91 | 1010.0 |
| 20260505125017 | 52 | 347 | 0.0 | 4.3 | 0.00 | 0.09 | 0.06 | 91 | 1010.6 |
| 20260505124548 | 52 | 8 | 0.0 | 3.5 | 0.00 | 0.09 | 0.06 | 92 | 1010.6 |
| 20260505124002 | 51 | 305 | 0.0 | 3.5 | 0.00 | 0.09 | 0.06 | 92 | 1010.6 |
| 20260505123531 | 51 | 321 | 0.0 | 4.3 | 0.00 | 0.09 | 0.06 | 92 | 1010.6 |
| 20260505123054 | 51 | 316 | 0.9 | 4.3 | 0.00 | 0.09 | 0.06 | 92 | 1010.6 |
| 20260505122517 | 51 | 328 | 0.0 | 2.6 | 0.00 | 0.09 | 0.06 | 92 | 1010.6 |
| 20260505122042 | 51 | 286 | 0.9 | 2.6 | 0.00 | 0.09 | 0.06 | 92 | 1010.6 |
| 20260505121553 | 51 | 283 | 0.9 | 2.6 | 0.00 | 0.09 | 0.06 | 93 | 1010.6 |
| 20260505121011 | 51 | 303 | 0.9 | 3.5 | 0.00 | 0.09 | 0.06 | 92 | 1010.7 |
| 20260505120517 | 51 | 3 | 0.9 | 4.3 | 0.00 | 0.09 | 0.06 | 92 | 1010.8 |
| 20260505120049 | 51 | 322 | 0.9 | 5.2 | 0.00 | 0.09 | 0.06 | 92 | 1010.7 |
| 20260505115503 | 51 | 283 | 0.9 | 5.2 | 0.00 | 0.09 | 0.06 | 93 | 1010.7 |
| 20260505115031 | 51 | 268 | 0.9 | 5.2 | 0.00 | 0.09 | 0.06 | 92 | 1010.7 |
| 20260505114558 | 51 | 308 | 0.9 | 5.2 | 0.00 | 0.09 | 0.06 | 92 | 1010.7 |
| 20260505114018 | 51 | 335 | 1.7 | 5.2 | 0.00 | 0.09 | 0.06 | 93 | 1010.8 |
| 20260505113547 | 51 | 333 | 1.7 | 5.2 | 0.00 | 0.09 | 0.06 | 93 | 1010.8 |
| 20260505113008 | 51 | 295 | 1.7 | 5.2 | 0.00 | 0.09 | 0.06 | 93 | 1010.8 |
| 20260505112538 | 51 | 309 | 1.7 | 5.2 | 0.00 | 0.09 | 0.06 | 93 | 1010.9 |
| 20260505112101 | 51 | 334 | 0.9 | 4.3 | 0.00 | 0.09 | 0.06 | 93 | 1011.0 |
| 20260505111522 | 51 | 330 | 0.9 | 4.3 | 0.00 | 0.09 | 0.06 | 94 | 1010.9 |
| 20260505111051 | 51 | 297 | 0.9 | 5.2 | 0.00 | 0.09 | 0.06 | 94 | 1011.1 |
| 20260505110615 | 51 | 323 | 1.7 | 5.2 | 0.00 | 0.09 | 0.06 | 93 | 1011.1 |
| 20260505102049 | 51 | 224 | 0.0 | 4.3 | 0.00 | 0.09 | 0.06 | 94 | 1011.0 |
| 20260505101518 | 51 | 25 | 0.9 | 4.3 | 0.00 | 0.09 | 0.06 | 94 | 1011.0 |
| 20260505101036 | 51 | 1 | 0.9 | 4.3 | 0.00 | 0.09 | 0.06 | 94 | 1010.9 |
| 20260505100604 | 51 | 281 | 0.0 | 4.3 | 0.00 | 0.09 | 0.06 | 94 | 1010.9 |
| 20260505100006 | 51 | 335 | 0.9 | 4.3 | 0.00 | 0.09 | 0.06 | 94 | 1011.0 |
| 20260505095536 | 51 | 318 | 0.9 | 4.3 | 0.00 | 0.09 | 0.06 | 94 | 1011.0 |
| 20260505095106 | 51 | 2 | 0.9 | 4.3 | 0.00 | 0.09 | 0.06 | 94 | 1011.0 |
| 20260505094529 | 51 | 321 | 0.9 | 4.3 | 0.00 | 0.09 | 0.06 | 94 | 1011.0 |
| 20260505094051 | 51 | 308 | 0.0 | 3.5 | 0.00 | 0.09 | 0.06 | 94 | 1011.0 |
| 20260505093558 | 51 | 288 | 0.9 | 3.5 | 0.00 | 0.09 | 0.06 | 94 | 1011.0 |
| 20260505093019 | 51 | 338 | 0.9 | 4.3 | 0.00 | 0.09 | 0.06 | 94 | 1011.1 |
| 20260505092548 | 51 | 283 | 0.9 | 4.3 | 0.00 | 0.09 | 0.06 | 94 | 1011.0 |
| 20260505092007 | 51 | 18 | 0.0 | 4.3 | 0.00 | 0.09 | 0.06 | 94 | 1011.0 |
| 20260505091536 | 51 | 295 | 0.0 | 4.3 | 0.00 | 0.09 | 0.06 | 94 | 1011.0 |
| 20260505091057 | 51 | 299 | 0.0 | 2.6 | 0.00 | 0.09 | 0.06 | 94 | 1011.0 |
| 20260505090604 | 51 | 344 | 0.9 | 4.3 | 0.00 | 0.09 | 0.06 | 94 | 1011.0 |
| 20260505090008 | 51 | 349 | 1.7 | 4.3 | 0.00 | 0.09 | 0.06 | 94 | 1011.0 |
| 20260505085531 | 51 | 308 | 0.9 | 4.3 | 0.00 | 0.09 | 0.06 | 94 | 1011.0 |
| 20260505085056 | 51 | 294 | 1.7 | 4.3 | 0.00 | 0.09 | 0.06 | 94 | 1011.1 |
| 20260505084522 | 51 | 311 | 0.9 | 5.2 | 0.00 | 0.09 | 0.06 | 94 | 1011.1 |
| 20260505084020 | 50 | 293 | 0.9 | 5.2 | 0.00 | 0.09 | 0.06 | 94 | 1011.1 |
| 20260505083524 | 50 | 320 | 0.9 | 4.3 | 0.00 | 0.09 | 0.06 | 94 | 1011.2 |
| 20260505083050 | 51 | 310 | 0.0 | 4.3 | 0.00 | 0.09 | 0.06 | 94 | 1011.2 |
| 20260505082520 | 50 | 317 | 1.7 | 5.2 | 0.00 | 0.09 | 0.06 | 94 | 1011.3 |
| 20260505082026 | 50 | 312 | 1.7 | 5.2 | 0.00 | 0.09 | 0.06 | 94 | 1011.2 |
| 20260505081553 | 50 | 312 | 0.9 | 4.3 | 0.00 | 0.09 | 0.06 | 94 | 1011.3 |
| 20260505081012 | 51 | 348 | 0.9 | 6.1 | 0.00 | 0.09 | 0.06 | 94 | 1011.2 |
| 20260505080541 | 50 | 325 | 1.7 | 6.1 | 0.00 | 0.09 | 0.06 | 94 | 1011.2 |
| 20260505080053 | 51 | 321 | 0.9 | 6.1 | 0.00 | 0.09 | 0.06 | 94 | 1011.2 |
| 20260505075507 | 51 | 299 | 1.7 | 7.0 | 0.00 | 0.09 | 0.06 | 94 | 1011.2 |
| 20260505075034 | 51 | 300 | 3.5 | 7.0 | 0.00 | 0.09 | 0.06 | 94 | 1011.2 |
| 20260505074541 | 51 | 237 | 1.7 | 4.3 | 0.00 | 0.09 | 0.06 | 94 | 1011.2 |
| 20260505074106 | 51 | 317 | 0.0 | 3.5 | 0.00 | 0.09 | 0.06 | 94 | 1011.2 |
| 20260505073526 | 51 | 269 | 0.0 | 4.3 | 0.00 | 0.09 | 0.06 | 94 | 1011.1 |
| 20260505073055 | 51 | 285 | 1.7 | 5.2 | 0.00 | 0.09 | 0.06 | 93 | 1011.2 |
| 20260505072556 | 51 | 301 | 2.6 | 5.2 | 0.00 | 0.09 | 0.06 | 93 | 1011.3 |
| 20260505072022 | 51 | 318 | 1.7 | 5.2 | 0.00 | 0.09 | 0.06 | 93 | 1011.2 |
| 20260505071547 | 51 | 331 | 1.7 | 5.2 | 0.00 | 0.09 | 0.06 | 93 | 1011.2 |
| 20260505071012 | 51 | 318 | 0.9 | 5.2 | 0.00 | 0.09 | 0.06 | 93 | 1011.2 |
| 20260505070517 | 51 | 295 | 0.9 | 4.3 | 0.00 | 0.09 | 0.06 | 93 | 1011.2 |
| 20260505070035 | 51 | 326 | 0.0 | 4.3 | 0.00 | 0.09 | 0.06 | 93 | 1011.2 |
| 20260505065549 | 51 | 307 | 0.9 | 5.2 | 0.00 | 0.09 | 0.06 | 93 | 1011.1 |
| 20260505065009 | 51 | 4 | 1.7 | 5.2 | 0.00 | 0.09 | 0.06 | 93 | 1011.2 |
| 20260505064534 | 51 | 350 | 0.9 | 5.2 | 0.00 | 0.09 | 0.06 | 93 | 1011.2 |
| 20260505064038 | 51 | 296 | 1.7 | 7.0 | 0.00 | 0.09 | 0.06 | 93 | 1011.2 |
| 20260505063603 | 51 | 329 | 2.6 | 7.0 | 0.00 | 0.09 | 0.06 | 94 | 1011.2 |
| 20260505063024 | 51 | 301 | 1.7 | 5.2 | 0.00 | 0.09 | 0.06 | 94 | 1011.2 |
| 20260505062549 | 51 | 324 | 0.9 | 3.5 | 0.00 | 0.09 | 0.06 | 94 | 1011.2 |
| 20260505062005 | 51 | 313 | 0.0 | 3.5 | 0.00 | 0.09 | 0.06 | 94 | 1011.3 |
| 20260505061539 | 51 | 300 | 0.0 | 3.5 | 0.00 | 0.09 | 0.06 | 94 | 1011.3 |
| 20260505061058 | 51 | 306 | 0.0 | 3.5 | 0.00 | 0.09 | 0.06 | 94 | 1011.4 |
| 20260505060624 | 51 | 336 | 0.9 | 3.5 | 0.00 | 0.09 | 0.06 | 94 | 1011.5 |
| 20260505060025 | 0 | 0.0 | 0.0 | 0.00 | 0.09 | 0.06 | 1011.5 | ||
| 20260505055548 | 0 | 0.0 | 0.0 | 0.00 | 0.09 | 0.06 | 1011.5 | ||
| 20260505055008 | 0 | 0.0 | 0.0 | 0.00 | 0.09 | 0.06 | 1011.5 | ||
| 20260505054537 | 0 | 0.0 | 0.0 | 0.00 | 0.09 | 0.06 | 1011.4 | ||
| 20260505054038 | 0 | 0.0 | 0.0 | 0.00 | 0.09 | 0.06 | 1011.4 | ||
| 20260505053505 | 0 | 0.0 | 0.0 | 0.00 | 0.09 | 0.06 | 1011.4 | ||
| 20260505053030 | 0 | 0.0 | 0.0 | 0.00 | 0.09 | 0.06 | 1011.3 | ||
| 20260505052550 | 0 | 0.0 | 0.0 | 0.00 | 0.09 | 0.06 | 1011.3 | ||
| 20260505052054 | 0 | 0.0 | 0.0 | 0.00 | 0.09 | 0.06 | 1011.4 | ||
| 20260505051632 | 0 | 0.0 | 0.0 | 0.00 | 0.09 | 0.06 | 1011.3 | ||
| 20260505051006 | 0 | 0.0 | 0.0 | 0.00 | 0.09 | 0.06 | 1011.2 | ||
| 20260505050519 | 0 | 0.0 | 0.0 | 0.00 | 0.09 | 0.06 | 1011.3 | ||
| 20260505041605 | 52 | 307 | 0.0 | 1.7 | 0.00 | 0.09 | 0.06 | 94 | 1011.4 |
| 20260505041022 | 52 | 258 | 0.0 | 4.3 | 0.00 | 0.09 | 0.06 | 94 | 1011.4 |
| 20260505040510 | 52 | 308 | 0.9 | 4.3 | 0.00 | 0.09 | 0.06 | 94 | 1011.3 |
| 20260505040048 | 52 | 314 | 0.0 | 3.5 | 0.00 | 0.09 | 0.06 | 94 | 1011.4 |
| 20260505035600 | 52 | 352 | 0.9 | 3.5 | 0.00 | 0.10 | 0.06 | 94 | 1011.5 |
| 20260505035020 | 52 | 320 | 0.0 | 3.5 | 0.00 | 0.10 | 0.06 | 94 | 1011.4 |
| 20260505034545 | 52 | 328 | 0.9 | 4.3 | 0.00 | 0.10 | 0.06 | 94 | 1011.6 |
| 20260505034006 | 52 | 300 | 0.9 | 4.3 | 0.00 | 0.10 | 0.06 | 94 | 1011.5 |
| 20260505033531 | 52 | 308 | 0.9 | 6.1 | 0.00 | 0.10 | 0.06 | 94 | 1011.5 |
| 20260505033059 | 53 | 281 | 1.7 | 6.1 | 0.00 | 0.10 | 0.06 | 94 | 1011.7 |
| 20260505032521 | 53 | 313 | 0.0 | 3.5 | 0.00 | 0.10 | 0.06 | 94 | 1011.7 |
| 20260505032049 | 53 | 297 | 0.9 | 3.5 | 0.00 | 0.10 | 0.06 | 94 | 1011.7 |
| 20260505031523 | 53 | 298 | 0.0 | 5.2 | 0.00 | 0.10 | 0.06 | 94 | 1011.6 |
| 20260505031036 | 53 | 319 | 0.9 | 5.2 | 0.00 | 0.10 | 0.06 | 94 | 1011.6 |
| 20260505030604 | 53 | 293 | 0.9 | 4.3 | 0.00 | 0.10 | 0.06 | 94 | 1011.6 |
| 20260505030052 | 53 | 316 | 0.9 | 4.3 | 0.00 | 0.10 | 0.06 | 94 | 1011.6 |
| 20260505025513 | 53 | 309 | 0.0 | 3.5 | 0.00 | 0.10 | 0.06 | 94 | 1011.6 |
| 20260505025043 | 53 | 300 | 0.0 | 3.5 | 0.00 | 0.10 | 0.06 | 94 | 1011.6 |
| 20260505024555 | 53 | 309 | 0.9 | 3.5 | 0.00 | 0.10 | 0.06 | 94 | 1011.5 |
| 20260505024002 | 53 | 292 | 1.7 | 3.5 | 0.00 | 0.10 | 0.06 | 94 | 1011.6 |
| 20260505023508 | 53 | 324 | 1.7 | 3.5 | 0.00 | 0.10 | 0.06 | 94 | 1011.6 |
| 20260505023013 | 53 | 305 | 0.9 | 3.5 | 0.00 | 0.10 | 0.06 | 94 | 1011.7 |
| 20260505022552 | 53 | 293 | 0.0 | 2.6 | 0.00 | 0.10 | 0.06 | 94 | 1011.7 |
| 20260505022058 | 53 | 273 | 0.0 | 2.6 | 0.00 | 0.10 | 0.06 | 94 | 1011.8 |
| 20260505021517 | 53 | 293 | 0.0 | 1.7 | 0.00 | 0.10 | 0.06 | 94 | 1011.8 |
| 20260505021044 | 53 | 300 | 0.0 | 1.7 | 0.00 | 0.10 | 0.06 | 94 | 1011.7 |
| 20260505020612 | 53 | 273 | 0.0 | 0.9 | 0.00 | 0.10 | 0.06 | 94 | 1011.7 |
| 20260505020015 | 53 | 274 | 0.0 | 0.9 | 0.00 | 0.10 | 0.06 | 94 | 1011.6 |
| 20260505015545 | 53 | 273 | 0.0 | 0.9 | 0.00 | 0.10 | 0.06 | 94 | 1011.7 |
| 20260505015004 | 53 | 273 | 0.0 | 2.6 | 0.00 | 0.10 | 0.06 | 94 | 1011.7 |
| 20260505014541 | 53 | 180 | 0.0 | 3.5 | 0.00 | 0.10 | 0.06 | 94 | 1011.7 |
| 20260505014100 | 53 | 193 | 0.0 | 3.5 | 0.00 | 0.10 | 0.06 | 94 | 1011.7 |
| 20260505013530 | 53 | 315 | 0.0 | 2.6 | 0.00 | 0.10 | 0.06 | 94 | 1011.7 |
| 20260505013057 | 53 | 309 | 0.0 | 2.6 | 0.00 | 0.10 | 0.06 | 94 | 1011.6 |
| 20260505012519 | 53 | 306 | 0.0 | 2.6 | 0.00 | 0.10 | 0.06 | 94 | 1011.7 |
| 20260505012045 | 53 | 265 | 0.0 | 2.6 | 0.00 | 0.10 | 0.06 | 94 | 1011.7 |
| 20260505011559 | 53 | 333 | 0.0 | 2.6 | 0.00 | 0.10 | 0.06 | 94 | 1011.8 |
| 20260505011009 | 53 | 309 | 0.9 | 2.6 | 0.00 | 0.10 | 0.06 | 94 | 1011.8 |
| 20260505010537 | 53 | 311 | 0.0 | 3.5 | 0.00 | 0.10 | 0.06 | 94 | 1011.8 |
| 20260505010046 | 53 | 202 | 0.9 | 3.5 | 0.00 | 0.10 | 0.06 | 94 | 1011.8 |
| 20260505005509 | 54 | 228 | 0.0 | 3.5 | 0.00 | 0.11 | 0.06 | 94 | 1011.9 |
| 20260505005034 | 54 | 310 | 0.9 | 3.5 | 0.00 | 0.11 | 0.06 | 94 | 1011.8 |
| 20260505004542 | 54 | 311 | 0.0 | 2.6 | 0.00 | 0.11 | 0.06 | 94 | 1011.8 |
| 20260505004011 | 54 | 307 | 0.0 | 2.6 | 0.00 | 0.11 | 0.06 | 94 | 1011.9 |
| 20260505003539 | 54 | 262 | 0.0 | 2.6 | 0.00 | 0.11 | 0.06 | 94 | 1011.9 |
| 20260505003105 | 54 | 232 | 0.0 | 1.7 | 0.00 | 0.11 | 0.06 | 94 | 1012.0 |
| 20260505002632 | 54 | 324 | 0.0 | 1.7 | 0.00 | 0.11 | 0.06 | 94 | 1012.1 |
| 20260505002103 | 54 | 255 | 0.0 | 1.7 | 0.00 | 0.11 | 0.06 | 94 | 1012.0 |
| 20260505001520 | 54 | 197 | 0.0 | 2.6 | 0.00 | 0.11 | 0.06 | 94 | 1012.1 |
| 20260505001046 | 54 | 198 | 0.0 | 2.6 | 0.00 | 0.11 | 0.06 | 94 | 1012.1 |
| 20260505000552 | 54 | 214 | 0.0 | 1.7 | 0.00 | 0.11 | 0.06 | 94 | 1012.1 |
| 20260505000050 | 54 | 198 | 0.0 | 1.7 | 0.01 | 0.11 | 0.06 | 94 | 1012.1 |
| 20260504235503 | 54 | 307 | 0.0 | 1.7 | 0.01 | 0.13 | 0.06 | 94 | 1012.1 |
| 20260504235028 | 54 | 186 | 0.0 | 2.6 | 0.02 | 0.13 | 0.06 | 94 | 1012.2 |
| 20260504234555 | 54 | 177 | 0.9 | 2.6 | 0.02 | 0.13 | 0.06 | 94 | 1012.3 |
| 20260504234100 | 54 | 235 | 0.0 | 2.6 | 0.02 | 0.13 | 0.06 | 94 | 1012.2 |
| 20260504233522 | 54 | 219 | 0.0 | 2.6 | 0.02 | 0.13 | 0.06 | 94 | 1012.3 |
| 20260504233106 | 54 | 236 | 0.0 | 2.6 | 0.03 | 0.13 | 0.06 | 94 | 1012.3 |
| 20260504232555 | 54 | 224 | 0.0 | 2.6 | 0.05 | 0.13 | 0.06 | 94 | 1012.3 |
| 20260504232016 | 54 | 158 | 0.0 | 2.6 | 0.05 | 0.13 | 0.06 | 94 | 1012.3 |
| 20260504231544 | 54 | 174 | 0.0 | 2.6 | 0.06 | 0.13 | 0.06 | 94 | 1012.4 |
| 20260504231006 | 54 | 189 | 0.0 | 2.6 | 0.06 | 0.13 | 0.06 | 94 | 1012.5 |
| 20260504230533 | 54 | 236 | 0.0 | 2.6 | 0.06 | 0.13 | 0.06 | 94 | 1012.5 |
| 20260504230040 | 54 | 201 | 0.0 | 1.7 | 0.05 | 0.12 | 0.05 | 94 | 1012.5 |
| 20260504225543 | 54 | 146 | 0.0 | 0.9 | 0.05 | 0.12 | 0.05 | 94 | 1012.5 |
| 20260504225046 | 54 | 193 | 0.0 | 0.9 | 0.05 | 0.11 | 0.04 | 94 | 1012.6 |
| 20260504224507 | 54 | 184 | 0.0 | 3.5 | 0.05 | 0.11 | 0.04 | 94 | 1012.5 |
| 20260504224036 | 54 | 265 | 0.0 | 3.5 | 0.04 | 0.10 | 0.03 | 94 | 1012.6 |
| 20260504223600 | 55 | 203 | 0.0 | 2.6 | 0.04 | 0.10 | 0.03 | 94 | 1012.7 |
| 20260504223032 | 55 | 210 | 0.0 | 1.7 | 0.02 | 0.09 | 0.02 | 94 | 1012.7 |
| 20260504222548 | 55 | 213 | 0.0 | 1.7 | 0.02 | 0.08 | 0.01 | 94 | 1012.7 |
| 20260504222010 | 55 | 187 | 0.0 | 3.5 | 0.01 | 0.07 | 0.00 | 94 | 1012.8 |
| 20260504221537 | 55 | 231 | 0.0 | 3.5 | 0.01 | 0.07 | 0.00 | 94 | 1012.8 |
| 20260504221105 | 55 | 207 | 0.0 | 0.9 | 0.02 | 0.07 | 0.00 | 93 | 1012.9 |
| 20260504220624 | 55 | 304 | 0.0 | 1.7 | 0.02 | 0.07 | 0.00 | 93 | 1012.9 |
| 20260504220027 | 55 | 326 | 0.0 | 3.5 | 0.02 | 0.07 | 0.00 | 93 | 1013.0 |
| 20260504215558 | 55 | 302 | 0.0 | 3.5 | 0.02 | 0.07 | 0.07 | 93 | 1013.1 |
| 20260504215021 | 56 | 313 | 0.9 | 3.5 | 0.01 | 0.06 | 0.06 | 93 | 1013.1 |
| 20260504214547 | 56 | 300 | 0.0 | 2.6 | 0.01 | 0.06 | 0.06 | 93 | 1013.1 |
| 20260504214008 | 56 | 278 | 0.0 | 2.6 | 0.01 | 0.06 | 0.06 | 93 | 1013.1 |
| 20260504213545 | 56 | 207 | 0.0 | 1.7 | 0.01 | 0.06 | 0.06 | 93 | 1013.1 |
| 20260504213100 | 56 | 209 | 0.0 | 1.7 | 0.01 | 0.06 | 0.06 | 93 | 1013.2 |
| 20260504212511 | 56 | 327 | 0.0 | 2.6 | 0.02 | 0.06 | 0.06 | 92 | 1013.1 |
| 20260504212034 | 56 | 330 | 0.0 | 2.6 | 0.02 | 0.06 | 0.06 | 92 | 1013.2 |
| 20260504211539 | 56 | 181 | 0.0 | 2.6 | 0.02 | 0.06 | 0.06 | 92 | 1013.2 |
| 20260504211002 | 56 | 297 | 0.0 | 0.9 | 0.02 | 0.06 | 0.06 | 93 | 1013.2 |
| 20260504210508 | 56 | 181 | 0.0 | 0.9 | 0.02 | 0.06 | 0.06 | 93 | 1013.2 |
| 20260504210039 | 56 | 290 | 0.0 | 0.9 | 0.02 | 0.06 | 0.06 | 92 | 1013.3 |
| 20260504205605 | 56 | 290 | 0.0 | 0.9 | 0.02 | 0.06 | 0.06 | 92 | 1013.3 |
| 20260504205020 | 56 | 340 | 0.0 | 0.0 | 0.02 | 0.06 | 0.06 | 92 | 1013.2 |
| 20260504204537 | 56 | 339 | 0.0 | 0.0 | 0.02 | 0.06 | 0.06 | 92 | 1013.2 |
| 20260504204048 | 56 | 340 | 0.0 | 0.0 | 0.02 | 0.06 | 0.06 | 92 | 1013.2 |
| 20260504203510 | 56 | 339 | 0.0 | 0.0 | 0.02 | 0.06 | 0.06 | 91 | 1013.2 |
| 20260504203042 | 56 | 339 | 0.0 | 0.0 | 0.02 | 0.06 | 0.06 | 91 | 1013.2 |
| 20260504202604 | 56 | 339 | 0.0 | 0.0 | 0.01 | 0.05 | 0.05 | 91 | 1013.2 |
| 20260504202003 | 56 | 340 | 0.0 | 0.0 | 0.00 | 0.04 | 0.04 | 91 | 1013.2 |
| 20260504201531 | 56 | 339 | 0.0 | 0.0 | 0.00 | 0.04 | 0.04 | 90 | 1013.2 |
| 20260504201056 | 56 | 339 | 0.0 | 0.0 | 0.00 | 0.04 | 0.04 | 90 | 1013.2 |
| 20260504200621 | 56 | 339 | 0.0 | 0.0 | 0.00 | 0.04 | 0.04 | 90 | 1013.2 |
| 20260504200025 | 57 | 339 | 0.0 | 0.0 | 0.01 | 0.04 | 0.04 | 90 | 1013.2 |
| 20260504195551 | 57 | 340 | 0.0 | 0.0 | 0.01 | 0.04 | 0.04 | 90 | 1013.2 |
| 20260504195016 | 57 | 339 | 0.0 | 0.0 | 0.01 | 0.04 | 0.04 | 90 | 1013.2 |
| 20260504194539 | 57 | 340 | 0.0 | 0.9 | 0.01 | 0.04 | 0.04 | 90 | 1013.2 |
| 20260504194002 | 57 | 340 | 0.0 | 0.9 | 0.01 | 0.04 | 0.04 | 91 | 1013.2 |
| 20260504193528 | 57 | 351 | 0.0 | 0.9 | 0.01 | 0.04 | 0.04 | 91 | 1013.2 |
| 20260504193056 | 57 | 8 | 0.0 | 0.0 | 0.01 | 0.04 | 0.04 | 90 | 1013.0 |
| 20260504192515 | 57 | 8 | 0.0 | 0.0 | 0.01 | 0.04 | 0.04 | 90 | 1012.8 |
| 20260504192044 | 57 | 8 | 0.0 | 0.0 | 0.01 | 0.04 | 0.04 | 90 | 1012.7 |
| 20260504191503 | 57 | 8 | 0.0 | 0.0 | 0.01 | 0.04 | 0.04 | 89 | 1012.5 |
| 20260504191114 | 57 | 8 | 0.0 | 0.0 | 0.01 | 0.04 | 0.04 | 89 | 1012.4 |
| 20260504190552 | 58 | 8 | 0.0 | 0.0 | 0.01 | 0.04 | 0.04 | 89 | 1012.5 |